{"data":{"norad_id":53838,"epoch":"2026-05-25T03:50:14.578080Z","epoch_age_seconds":71899,"freshness":"FRESH","line1":"1 53838U 22114W   26145.15989095  .00000250  00000+0  33834-4 0  9992","line2":"2 53838  53.2121 310.9992 0001535  98.5659 261.5507 15.08835918204518","mean_motion":15.08835918,"eccentricity":0.0001535,"inclination_deg":53.2121,"raan_deg":310.9992,"arg_perigee_deg":98.5659,"mean_anomaly_deg":261.5507,"bstar":3.3834e-5,"rev_number":20451,"period_min":95.437812874229,"perigee_km":538.69396947827,"apogee_km":540.81776258814,"semimajor_km":6917.8928660332,"source":"CELESTRAK","updated_at":"2026-05-25T13:38:17.573412Z"}}